Location: ASU Dark Sky Observatory
(36.2504°N, 81.4125°W)
Time: 01:36:48
(UTC-04:00)

Amateur Radio Satellites - All Passes

Search period start: 02 July 2016 01:06
Search period end: 03 July 2016 01:06
Location: ASU Dark Sky Observatory, 36.2504°N, 81.4125°W

Satellite Date Start Highest point End Downlink Frequencies (MHz)
Time Altitude Azimuth
POPSAT HIP 1 02 Jul 01:09:47 01:14:03 72° 284° (WNW) 01:18:18 437.405
ESTCUBE 1 02 Jul 01:10:17 01:13:29 19° 266° (W) 01:16:42 437.505/2401.250
DUCHIFAT 1 02 Jul 01:19:49 01:24:00 60° 285° (WNW) 01:28:11 145.980
QB50P2 02 Jul 01:23:15 01:27:20 45° 287° (WNW) 01:31:25 145.880/145.840
POLYITAN 1 02 Jul 01:25:54 01:29:58 44° 287° (WNW) 01:34:02 437.675
BEESAT 3 02 Jul 01:25:58 01:28:58 21° 111° (ESE) 01:31:59 437.485
Cosmos 2504 02 Jul 01:30:33 01:39:19 62° 80° (E) 01:47:34 435.465 / 435.565
50 SAT 02 Jul 01:31:49 01:33:02 11° 267° (W) 01:34:15 437.505
CUBEBUG 1 02 Jul 01:37:11 01:39:20 13° 267° (W) 01:41:28 437.445
PCSat 02 Jul 01:37:41 01:42:54 50° 111° (ESE) 01:48:08 145.827
TISAT 1 02 Jul 01:38:35 01:42:39 57° 75° (ENE) 01:46:44 437.305
SO-50 02 Jul 01:44:56 01:48:52 28° 248° (WSW) 01:52:41 436.795
Oscar 19 02 Jul 01:52:35 01:56:11 19° 94° (E) 01:59:45 437.125/150
O/OREOS (USA 219) 02 Jul 01:52:45 01:56:16 23° 102° (ESE) 01:59:46 437.305
Cosmos 2491 02 Jul 01:54:57 02:03:29 56° 281° (W) 02:12:03 435.465 / 435.565
BUGSAT 1 02 Jul 02:00:15 02:04:11 44° 286° (WNW) 02:08:09 437.445
SPROUT 02 Jul 02:09:57 02:12:14 14° 267° (W) 02:14:33 437.525
BEESAT 2 02 Jul 02:10:35 02:14:14 37° 115° (ESE) 02:17:56 435.950
SWISSCUBE 02 Jul 02:16:32 02:20:44 31° 70° (ENE) 02:24:58 437.505
Gurwin Techsat 1B 02 Jul 02:39:15 02:43:29 24° 95° (E) 02:47:42 435.225
BEESAT 02 Jul 02:40:53 02:45:30 51° 73° (ENE) 02:50:08 436.000
ITUPSAT 1 02 Jul 02:44:25 02:49:05 55° 73° (ENE) 02:53:48 437.325
JAS-2 02 Jul 02:45:11 02:50:21 44° 289° (WNW) 02:55:14 435.910
YUBILEINY 02 Jul 02:47:33 02:51:27 14° 283° (WNW) 02:55:22 435.215
BEESAT 3 02 Jul 03:03:08 03:06:29 27° 307° (NW) 03:09:52 437.485
PCSat 02 Jul 03:22:26 03:26:33 22° 309° (NW) 03:30:42 145.827
Cosmos 2504 02 Jul 03:25:11 03:31:54 25° 278° (W) 03:38:22 435.465 / 435.565
AIST 2 02 Jul 03:26:58 03:28:24 12° 108° (ESE) 03:29:50 435.215
Oscar 19 02 Jul 03:30:49 03:35:39 43° 288° (WNW) 03:40:29 437.125/150
O/OREOS (USA 219) 02 Jul 03:31:36 03:35:29 28° 297° (WNW) 03:39:22 437.305
AO-7 02 Jul 03:36:07 03:40:34 15° 91° (E) 03:45:00 29.400- 29.500
BEESAT 2 02 Jul 03:49:32 03:52:13 17° 310° (NW) 03:54:54 435.950
SWISSCUBE 02 Jul 03:54:42 03:58:31 24° 264° (W) 04:02:21 437.505
ITAMSAT 1 02 Jul 04:01:31 04:06:37 51° 100° (E) 04:11:40 435.822/435.867
KKS-1 02 Jul 04:05:11 04:09:22 44° 73° (ENE) 04:13:35 437.445
Gurwin Techsat 1B 02 Jul 04:18:37 04:23:29 37° 290° (WNW) 04:28:19 435.225
BEESAT 02 Jul 04:21:00 04:23:32 14° 267° (W) 04:26:05 436.000
MOZHAYETS 4 02 Jul 04:23:06 04:27:40 64° 75° (ENE) 04:32:17
AIST 1 02 Jul 04:24:01 04:28:11 52° 81° (E) 04:32:21
ITUPSAT 1 02 Jul 04:24:55 04:27:13 13° 268° (W) 04:29:33 437.325
STARS 02 Jul 04:26:55 04:30:55 37° 72° (ENE) 04:34:57 437.465
GONETS M04 02 Jul 04:50:11 04:57:02 25° 70° (ENE) 05:03:51
PHONESAT 2.4 02 Jul 04:58:51 05:01:26 25° 149° (SSE) 05:04:02 2401.200-2431.200
AIST 2 02 Jul 05:02:23 05:06:23 52° 303° (WNW) 05:10:26 435.215
HORYU 2 02 Jul 05:24:47 05:27:56 19° 95° (E) 05:31:05 437.375
AO-7 02 Jul 05:25:49 05:34:15 88° 107° (ESE) 05:42:37 29.400- 29.500
AO-85 02 Jul 05:36:22 05:39:55 23° 49° (NE) 05:43:15 145.980
ITAMSAT 1 02 Jul 05:42:12 05:45:38 18° 296° (WNW) 05:49:03 435.822/435.867
KKS-1 02 Jul 05:43:48 05:46:08 14° 267° (W) 05:48:28 437.445
Cosmos 2499 02 Jul 05:55:32 06:03:45 44° 76° (ENE) 06:11:22 435.465 / 435.565
CUBESAT XI-V 02 Jul 06:01:15 06:05:56 83° 78° (ENE) 06:10:38 437.345
MOZHAYETS 4 02 Jul 06:04:27 06:05:13 10° 270° (W) 06:06:00
STARS 02 Jul 06:04:41 06:07:23 16° 266° (W) 06:10:07 437.465
CUSAT 1 02 Jul 06:24:16 06:29:06 19° 89° (E) 06:33:29 437.405
PHONESAT 2.4 02 Jul 06:34:51 06:37:53 62° 343° (NNW) 06:40:56 2401.200-2431.200
Cubesat XI-IV 02 Jul 06:38:38 06:42:03 17° 93° (E) 06:45:25 437.490
ISS 02 Jul 06:39:52 06:41:47 15° 128° (SE) 06:43:44 145.825
GONETS M04 02 Jul 06:45:49 06:54:24 64° 268° (W) 07:03:02
HORYU 2 02 Jul 07:00:28 07:04:33 35° 289° (WNW) 07:08:37 437.375
NOAA 18 02 Jul 07:04:13 07:09:12 33° 98° (E) 07:14:09 137.9125
CUTE-I 02 Jul 07:10:30 07:15:25 35° 98° (E) 07:20:16 437.470
AO-85 02 Jul 07:16:35 07:20:24 30° 248° (WSW) 07:23:58 145.980
BRITE-PL 02 Jul 07:18:57 07:23:05 62° 101° (E) 07:27:20 437.365/2234.400
AO-7 02 Jul 07:20:27 07:25:55 20° 306° (NW) 07:31:23 29.400- 29.500
STRAND 1 02 Jul 07:20:33 07:25:17 38° 70° (ENE) 07:30:02 437.568
DANDE 02 Jul 07:21:16 07:28:13 30° 89° (E) 07:34:40 436.750
NOAA 15 02 Jul 07:25:19 07:30:33 70° 102° (ESE) 07:35:46 137.62
GOMX 1 02 Jul 07:32:03 07:36:03 36° 99° (E) 07:40:13 467.674
LilacSat-2 02 Jul 07:41:58 07:45:52 84° 103° (ESE) 07:49:45 437.200
Cosmos 2499 02 Jul 07:49:02 07:56:35 35° 275° (W) 08:03:42 435.465 / 435.565
CUSAT 1 02 Jul 08:03:08 08:10:49 72° 278° (W) 08:17:11 437.405
DOVE 4 02 Jul 08:11:45 08:16:03 46° 100° (E) 08:20:36 437.250
PHONESAT 2.4 02 Jul 08:11:55 08:14:46 34° 360° (N) 08:17:37 2401.200-2431.200
ISS 02 Jul 08:14:50 08:17:57 43° 323° (NW) 08:21:06 145.825
Cubesat XI-IV 02 Jul 08:17:09 08:22:23 53° 288° (WNW) 08:27:35 437.490
HO-68 02 Jul 08:21:04 08:26:23 22° 94° (E) 08:31:40 435.675
CANX-2 02 Jul 08:24:39 08:27:17 16° 93° (E) 08:29:52 2200.000
CINEMA 3 02 Jul 08:38:13 08:42:09 26° 96° (E) 08:46:13 145.822/145.860
SEEDS 02 Jul 08:40:34 08:42:54 14° 93° (E) 08:45:12 437.485
CUTE 1.7 + AOD 2 02 Jul 08:43:12 08:46:34 23° 95° (E) 08:49:56 437.475
NOAA 18 02 Jul 08:44:58 08:49:42 30° 293° (WNW) 08:54:27 137.9125
CUTE-I 02 Jul 08:50:51 08:55:15 26° 293° (WNW) 08:59:37 437.470
PRISM 02 Jul 08:52:25 08:56:23 47° 73° (ENE) 09:00:22 437.425
STRAND 1 02 Jul 09:00:35 09:04:31 22° 265° (W) 09:08:29 437.568
DANDE 02 Jul 09:02:30 09:10:44 56° 282° (WNW) 09:18:10 436.750
NOAA 15 02 Jul 09:07:12 09:09:42 14° 298° (WNW) 09:12:10 137.62
AAUSAT CUBESAT 2 02 Jul 09:07:41 09:10:17 16° 93° (E) 09:12:52 437.432
GOMX 1 02 Jul 09:11:07 09:13:54 17° 291° (WNW) 09:16:46 467.674
CUBEBUG 2 02 Jul 09:44:14 09:48:40 41° 98° (E) 09:53:08 437.445
COMPASS 1 02 Jul 09:44:39 09:48:48 60° 100° (E) 09:52:53 437.405
PHONESAT 2.4 02 Jul 09:48:36 09:51:38 63° 16° (NNE) 09:54:41 2401.200-2431.200
DOVE 4 02 Jul 09:50:53 09:53:26 15° 292° (WNW) 09:56:02 437.250
CUSAT 1 02 Jul 09:52:01 09:53:23 11° 292° (WNW) 09:54:43 437.405
ZACube-1 02 Jul 09:53:06 09:56:40 22° 95° (E) 10:00:14 437.345
AUBIESAT-1 02 Jul 09:54:23 09:57:20 18° 100° (E) 10:00:23 437.475
Oscar 11 02 Jul 09:54:57 09:58:26 23° 95° (E) 10:01:52 145.826/435.025
CANX-2 02 Jul 09:59:18 10:03:14 36° 288° (WNW) 10:07:08 2200.000
ANTELSAT 02 Jul 10:00:40 10:03:28 17° 66° (ENE) 10:06:18 437.575/2403.000
HO-68 02 Jul 10:07:24 10:14:29 63° 289° (WNW) 10:21:33 435.675
FUNcube-1 02 Jul 10:07:58 10:12:00 30° 96° (E) 10:16:01 145.935
SEEDS 02 Jul 10:14:48 10:18:44 39° 287° (WNW) 10:22:38 437.485
CINEMA 3 02 Jul 10:15:14 10:19:11 28° 289° (WNW) 10:23:16 145.822/145.860
Cosmos 2491 02 Jul 10:17:02 10:18:20 10° 60° (ENE) 10:19:38 435.465 / 435.565
CUTE 1.7 + AOD 2 02 Jul 10:18:49 10:22:20 26° 290° (WNW) 10:25:51 437.475
DELFI C3 02 Jul 10:19:48 10:22:31 18° 94° (E) 10:25:12 145.870
UWE-3 02 Jul 10:22:42 10:27:22 75° 102° (ESE) 10:32:02 435.000/436.395/437.385
PCSat 02 Jul 10:28:35 10:32:59 25° 53° (NE) 10:37:22 145.827
PRISM 02 Jul 10:30:25 10:31:54 12° 267° (W) 10:33:24 437.425
HUMSAT D 02 Jul 10:31:44 10:33:12 11° 91° (E) 10:34:39 437.325/437.525
BEESAT 2 02 Jul 10:32:24 10:34:04 12° 47° (NE) 10:35:42 435.950
M-CUBED/EXP-1 PRIME 02 Jul 10:36:20 10:40:25 73° 106° (ESE) 10:44:49 437.505
AAUSAT CUBESAT 2 02 Jul 10:42:06 10:45:51 33° 288° (WNW) 10:49:35 437.432
TIGRISAT 02 Jul 10:49:19 10:53:32 57° 74° (ENE) 10:57:51 435.000
UNISAT 6 02 Jul 10:55:48 11:00:06 73° 75° (ENE) 11:04:31 437.425
CUBEBUG 2 02 Jul 11:21:45 11:24:57 18° 292° (WNW) 11:28:09 437.445
BEESAT 3 02 Jul 11:21:59 11:25:57 73° 60° (ENE) 11:29:52 437.485
COMPASS 1 02 Jul 11:23:32 11:23:48 10° 295° (WNW) 11:24:03 437.405
PHONESAT 2.4 02 Jul 11:25:30 11:28:05 25° 211° (SSW) 11:30:40 2401.200-2431.200
AUBIESAT-1 02 Jul 11:28:04 11:31:47 34° 292° (WNW) 11:35:42 437.475
ZACube-1 02 Jul 11:28:54 11:32:55 31° 289° (WNW) 11:36:57 437.345
RS-15 02 Jul 11:29:20 11:40:21 63° 112° (ESE) 11:52:00 29.354- 29.394
Oscar 11 02 Jul 11:30:51 11:34:29 26° 290° (WNW) 11:38:05 145.826/435.025
ANTELSAT 02 Jul 11:35:50 11:39:50 37° 262° (W) 11:43:56 437.575/2403.000
FUNcube-1 02 Jul 11:44:28 11:48:03 23° 291° (WNW) 11:51:37 145.935
NANOSAT C BR1 02 Jul 11:50:28 11:54:25 42° 73° (ENE) 11:58:23 145.865
YUBILEINY 02 Jul 11:50:56 11:57:11 23° 81° (E) 12:03:27 435.215
DELFI C3 02 Jul 11:53:57 11:57:22 28° 289° (WNW) 12:00:45 145.870
QB50P1 02 Jul 11:55:49 11:59:53 53° 74° (ENE) 12:04:00 145.935-145.965
POPSAT HIP 1 02 Jul 11:59:25 12:03:31 58° 75° (ENE) 12:07:39 437.405
HO-68 02 Jul 12:00:08 12:00:46 10° 308° (NW) 12:01:24 435.675
UWE-3 02 Jul 12:02:37 12:03:09 10° 296° (WNW) 12:03:42 435.000/436.395/437.385
O/OREOS (USA 219) 02 Jul 12:04:33 12:08:28 29° 63° (ENE) 12:12:23 437.305
HUMSAT D 02 Jul 12:04:54 12:09:05 51° 286° (WNW) 12:13:14 437.325/437.525
Cosmos 2491 02 Jul 12:08:16 12:16:57 66° 81° (E) 12:25:36 435.465 / 435.565
BEESAT 2 02 Jul 12:08:20 12:12:16 61° 243° (WSW) 12:16:12 435.950
DUCHIFAT 1 02 Jul 12:08:44 12:12:51 68° 75° (ENE) 12:17:00 145.980
VELOX 1 02 Jul 12:10:21 12:12:56 15° 93° (E) 12:15:31 145.980
PCSat 02 Jul 12:11:25 12:16:31 43° 249° (WSW) 12:21:36 145.827
QB50P2 02 Jul 12:12:46 12:16:57 88° 257° (WSW) 12:21:11 145.880/145.840
POLYITAN 1 02 Jul 12:15:24 12:19:35 86° 257° (WSW) 12:23:49 437.675
UKube-1 02 Jul 12:28:42 12:31:04 14° 94° (E) 12:33:24 .
TIGRISAT 02 Jul 12:29:56 12:30:35 10° 269° (W) 12:31:14 435.000
BUGSAT 1 02 Jul 12:47:00 12:51:00 84° 77° (ENE) 12:55:01 437.445
AISAT 02 Jul 12:50:20 12:54:35 47° 100° (E) 12:58:50 437.250
JAS-2 02 Jul 12:51:51 12:59:14 58° 72° (ENE) 13:05:56 435.910
DX 1 02 Jul 12:55:17 12:59:20 38° 99° (E) 13:03:22 434.975-435.025
50 SAT 02 Jul 13:00:34 13:04:14 72° 100° (E) 13:07:52 437.505
ESTCUBE 1 02 Jul 13:03:47 13:08:16 73° 284° (WNW) 13:12:43 437.505/2401.250
Oscar 19 02 Jul 13:06:58 13:10:52 22° 67° (ENE) 13:14:47 437.125/150
ISS 02 Jul 13:09:37 13:10:45 11° 22° (NNE) 13:11:53 145.825
CUBEBUG 1 02 Jul 13:25:45 13:30:01 60° 286° (WNW) 13:34:16 437.445
AIST 2 02 Jul 13:26:03 13:30:01 42° 56° (ENE) 13:33:58 435.215
TISAT 1 02 Jul 13:27:37 13:28:38 11° 92° (E) 13:29:39 437.305
NANOSAT C BR1 02 Jul 13:28:24 13:30:20 13° 267° (W) 13:32:16 145.865
QB50P1 02 Jul 13:35:16 13:35:57 10° 268° (W) 13:36:38 145.935-145.965
RS-15 02 Jul 13:42:53 13:53:25 40° 315° (NW) 14:04:32 29.354- 29.394
O/OREOS (USA 219) 02 Jul 13:44:12 13:47:41 22° 258° (WSW) 13:51:10 437.305
YUBILEINY 02 Jul 13:44:27 13:53:05 68° 279° (W) 14:01:51 435.215
VELOX 1 02 Jul 13:45:25 13:49:32 40° 288° (WNW) 13:53:39 145.980
SPROUT 02 Jul 13:56:06 14:00:23 70° 284° (WNW) 14:04:38 437.525
Gurwin Techsat 1B 02 Jul 13:57:43 14:02:16 30° 69° (ENE) 14:06:51 435.225
UKube-1 02 Jul 14:03:12 14:07:15 41° 288° (WNW) 14:11:18 .
Cosmos 2504 02 Jul 14:04:33 14:12:25 55° 90° (E) 14:20:49 435.465 / 435.565
Cosmos 2491 02 Jul 14:06:38 14:12:56 23° 278° (W) 14:19:15 435.465 / 435.565
JUGNU 02 Jul 14:10:24 14:13:01 13° 170° (S) 14:15:38 437.505
SO-50 02 Jul 14:17:06 14:20:11 17° 109° (ESE) 14:23:17 436.795
AISAT 02 Jul 14:28:21 14:30:38 14° 295° (WNW) 14:32:55 437.250
DX 1 02 Jul 14:32:27 14:35:12 17° 293° (WNW) 14:37:56 434.975-435.025
AO-7 02 Jul 14:32:35 14:38:06 20° 54° (NE) 14:43:38 29.400- 29.500
JAS-2 02 Jul 14:38:27 14:44:23 25° 265° (W) 14:49:58 435.910
ISS 02 Jul 14:44:29 14:47:44 64° 40° (NE) 14:50:58 145.825
BEESAT 02 Jul 14:44:54 14:47:49 16° 93° (E) 14:50:44 436.000
Oscar 19 02 Jul 14:45:08 14:49:55 39° 262° (W) 14:54:43 437.125/150
ITUPSAT 1 02 Jul 14:48:41 14:51:50 17° 94° (E) 14:54:59 437.325
TISAT 1 02 Jul 15:00:27 15:04:33 52° 286° (WNW) 15:08:39 437.305
AIST 2 02 Jul 15:05:48 15:08:08 15° 251° (WSW) 15:10:27 435.215
ITAMSAT 1 02 Jul 15:16:45 15:21:52 60° 73° (ENE) 15:27:01 435.822/435.867
Gurwin Techsat 1B 02 Jul 15:37:31 15:42:07 30° 263° (W) 15:46:45 435.225
YUBILEINY 02 Jul 15:49:50 15:51:40 11° 300° (WNW) 15:53:31 435.215
SO-50 02 Jul 15:55:29 16:00:15 51° 304° (NW) 16:05:01 436.795
SWISSCUBE 02 Jul 15:56:17 16:01:05 76° 285° (WNW) 16:05:50 437.505
JUGNU 02 Jul 15:57:44 16:01:15 16° 180° (S) 16:04:45 437.505
Cosmos 2504 02 Jul 15:59:16 16:06:11 29° 289° (WNW) 16:13:30 435.465 / 435.565
KKS-1 02 Jul 16:01:43 16:02:18 10° 91° (E) 16:02:53 437.445
RS-15 02 Jul 16:04:02 16:10:52 16° 348° (NNW) 16:17:50 29.354- 29.394
BEESAT 02 Jul 16:21:13 16:25:48 45° 287° (WNW) 16:30:20 436.000
AO-7 02 Jul 16:21:27 16:29:48 87° 252° (WSW) 16:38:14 29.400- 29.500
HORYU 2 02 Jul 16:21:30 16:23:36 13° 65° (ENE) 16:25:41 437.375
MOZHAYETS 4 02 Jul 16:21:47 16:25:01 19° 94° (E) 16:28:13
ITUPSAT 1 02 Jul 16:25:18 16:29:50 42° 289° (WNW) 16:34:20 437.325
AIST 1 02 Jul 16:50:35 16:54:31 35° 91° (E) 16:58:26
ITAMSAT 1 02 Jul 16:59:01 17:01:41 14° 268° (W) 17:04:21 435.822/435.867
SRMSAT 02 Jul 17:20:57 17:24:19 15° 176° (S) 17:27:39 437.500
KKS-1 02 Jul 17:34:48 17:39:12 61° 286° (WNW) 17:43:36 437.445
JUGNU 02 Jul 17:47:05 17:49:27 12° 191° (S) 17:51:51 437.505
GONETS M04 02 Jul 17:48:15 17:55:30 31° 85° (E) 18:02:43
STARS 02 Jul 17:54:34 17:58:59 75° 284° (WNW) 18:03:23 437.465
HORYU 2 02 Jul 17:55:21 17:59:39 52° 260° (W) 18:04:01 437.375
Cubesat XI-IV 02 Jul 17:57:57 18:02:01 23° 66° (ENE) 18:06:06 437.490
MOZHAYETS 4 02 Jul 17:58:01 18:02:16 37° 288° (WNW) 18:06:29
CUBESAT XI-V 02 Jul 18:01:05 18:04:51 24° 95° (E) 18:08:34 437.345
AO-7 02 Jul 18:19:16 18:23:30 15° 269° (W) 18:27:47 29.400- 29.500
RS-15 02 Jul 18:21:44 18:30:23 21° 26° (NNE) 18:39:03 29.354- 29.394
LilacSat-2 02 Jul 18:21:44 18:24:56 26° 71° (ENE) 18:28:08 437.200
BRITE-PL 02 Jul 18:26:49 18:31:40 56° 75° (ENE) 18:36:10 437.365/2234.400
NOAA 18 02 Jul 18:27:50 18:33:03 49° 71° (ENE) 18:38:20 137.9125
Cosmos 2499 02 Jul 18:27:56 18:35:26 38° 86° (E) 18:43:18 435.465 / 435.565
AIST 1 02 Jul 18:29:36 18:32:13 16° 286° (WNW) 18:34:49
CUTE-I 02 Jul 18:29:37 18:34:41 45° 71° (ENE) 18:39:47 437.470
GOMX 1 02 Jul 18:38:06 18:42:00 29° 72° (ENE) 18:45:44 467.674
NOAA 15 02 Jul 18:42:39 18:47:56 85° 78° (ENE) 18:53:15 137.62
CUSAT 1 02 Jul 18:43:22 18:46:23 48° 78° (ENE) 18:48:58 437.405
HO-68 02 Jul 18:50:00 18:52:58 13° 55° (NE) 18:55:55 435.675
SRMSAT 02 Jul 19:09:30 19:12:42 15° 186° (S) 19:15:53 437.500
DOVE 4 02 Jul 19:15:22 19:19:09 32° 72° (ENE) 19:22:51 437.250
CUTE 1.7 + AOD 2 02 Jul 19:34:51 19:36:41 13° 66° (ENE) 19:38:30 437.475
STRAND 1 02 Jul 19:34:54 19:37:57 16° 93° (E) 19:41:01 437.568
Cubesat XI-IV 02 Jul 19:36:45 19:41:46 41° 261° (W) 19:46:51 437.490
CUBESAT XI-V 02 Jul 19:38:16 19:42:09 28° 290° (WNW) 19:46:01 437.345
CINEMA 3 02 Jul 19:38:52 19:41:19 15° 67° (ENE) 19:43:47 145.822/145.860
GONETS M04 02 Jul 19:43:28 19:51:50 51° 282° (WNW) 20:00:16
AO-85 02 Jul 19:48:12 19:51:38 17° 108° (ESE) 19:55:02 145.980
DANDE 02 Jul 19:48:25 19:52:30 62° 265° (W) 19:55:36 436.750
LilacSat-2 02 Jul 19:56:42 19:59:13 17° 266° (W) 20:01:44 437.200
BRITE-PL 02 Jul 20:08:10 20:10:20 13° 267° (W) 20:12:27 437.365/2234.400
NOAA 18 02 Jul 20:10:08 20:13:56 19° 266° (W) 20:17:46 137.9125
CUTE-I 02 Jul 20:11:04 20:14:54 20° 266° (W) 20:18:46 437.470
GOMX 1 02 Jul 20:16:42 20:20:05 20° 264° (W) 20:23:21 467.674
Cosmos 2499 02 Jul 20:20:30 20:28:21 43° 285° (WNW) 20:36:39 435.465 / 435.565
HO-68 02 Jul 20:32:21 20:39:29 76° 72° (ENE) 20:46:40 435.675
COMPASS 1 02 Jul 20:32:56 20:36:33 28° 71° (ENE) 20:40:11 437.405
RS-15 02 Jul 20:34:04 20:46:17 60° 54° (NE) 20:58:18 29.354- 29.394
AUBIESAT-1 02 Jul 20:40:28 20:41:24 11° 62° (ENE) 20:42:20 437.475
CUBEBUG 2 02 Jul 20:40:32 20:43:50 23° 69° (ENE) 20:47:11 437.445
ZACube-1 02 Jul 20:48:10 20:49:51 12° 65° (ENE) 20:51:34 437.345
Oscar 11 02 Jul 20:48:25 20:50:36 14° 66° (ENE) 20:52:47 145.826/435.025
CANX-2 02 Jul 20:48:39 20:52:56 75° 259° (W) 20:57:14 2200.000
DOVE 4 02 Jul 20:54:07 20:56:55 17° 266° (W) 20:59:40 437.250
FUNcube-1 02 Jul 21:01:59 21:04:41 17° 67° (ENE) 21:07:24 145.935
SEEDS 02 Jul 21:03:07 21:07:22 84° 255° (WSW) 21:11:39 437.485
CUTE 1.7 + AOD 2 02 Jul 21:07:53 21:12:02 50° 261° (W) 21:16:14 437.475
STRAND 1 02 Jul 21:12:24 21:17:25 52° 287° (WNW) 21:22:22 437.568
CINEMA 3 02 Jul 21:14:20 21:18:09 36° 262° (W) 21:22:00 145.822/145.860
UWE-3 02 Jul 21:17:15 21:21:11 40° 73° (ENE) 21:25:14 435.000/436.395/437.385
M-CUBED/EXP-1 PRIME 02 Jul 21:21:28 21:24:37 51° 70° (ENE) 21:27:51 437.505
AO-85 02 Jul 21:26:19 21:31:42 60° 302° (WNW) 21:36:55 145.980
AAUSAT CUBESAT 2 02 Jul 21:28:51 21:33:02 76° 258° (WSW) 21:37:15 437.432
COMPASS 1 02 Jul 22:08:58 22:12:05 20° 265° (W) 22:15:13 437.405
PRISM 02 Jul 22:11:30 22:15:34 71° 284° (WNW) 22:19:36 437.425
AUBIESAT-1 02 Jul 22:12:34 22:15:34 32° 257° (WSW) 22:18:36 437.475
CUBEBUG 2 02 Jul 22:16:53 22:20:20 25° 265° (W) 22:23:52 437.445
ZACube-1 02 Jul 22:21:31 22:25:37 51° 261° (W) 22:29:51 437.345
Oscar 11 02 Jul 22:22:07 22:26:17 47° 261° (W) 22:30:30 145.826/435.025
HO-68 02 Jul 22:23:27 22:27:47 17° 268° (W) 22:32:10 435.675
DELFI C3 02 Jul 22:36:18 22:40:18 73° 257° (WSW) 22:44:21 145.870
FUNcube-1 02 Jul 22:36:42 22:40:35 36° 263° (W) 22:44:35 145.935
TIGRISAT 02 Jul 22:44:29 22:47:20 16° 93° (E) 22:50:11 435.000
RS-15 02 Jul 22:47:17 22:58:13 39° 254° (WSW) 23:09:01 29.354- 29.394
UNISAT 6 02 Jul 22:50:45 22:54:11 20° 94° (E) 22:57:38 437.425
HUMSAT D 02 Jul 22:52:59 22:57:09 75° 78° (ENE) 23:01:25 437.325/437.525
UWE-3 02 Jul 22:55:39 22:57:51 14° 268° (W) 23:00:05 435.000/436.395/437.385
VELOX 1 02 Jul 23:07:13 23:08:04 10° 64° (ENE) 23:08:55 145.980
Cosmos 2491 02 Jul 23:15:18 23:18:57 13° 77° (ENE) 23:22:37 435.465 / 435.565
ANTELSAT 02 Jul 23:29:26 23:34:02 53° 100° (E) 23:38:38 437.575/2403.000
50 SAT 02 Jul 23:36:21 23:39:12 21° 70° (ENE) 23:42:04 437.505
AISAT 02 Jul 23:45:18 23:49:09 30° 71° (ENE) 23:52:59 437.250
QB50P1 02 Jul 23:45:51 23:46:43 10° 92° (E) 23:47:34 145.935-145.965
DX 1 02 Jul 23:48:36 23:52:06 24° 69° (ENE) 23:55:36 434.975-435.025
POPSAT HIP 1 02 Jul 23:48:57 23:50:26 12° 92° (E) 23:51:55 437.405
DUCHIFAT 1 02 Jul 23:57:08 23:59:10 13° 93° (E) 00:01:12 145.980
YUBILEINY 02 Jul 23:57:52 00:06:30 55° 79° (ENE) 00:15:06 435.215
ESTCUBE 1 03 Jul 00:00:16 00:04:47 73° 76° (ENE) 00:09:19 437.505/2401.250
QB50P2 03 Jul 00:01:13 00:04:11 18° 94° (E) 00:07:09 145.880/145.840
Cosmos 2504 03 Jul 00:02:12 00:07:41 18° 65° (ENE) 00:13:00 435.465 / 435.565
POLYITAN 1 03 Jul 00:03:48 00:06:50 19° 95° (E) 00:09:52 437.675
CUBEBUG 1 03 Jul 00:18:41 00:23:01 78° 77° (ENE) 00:27:21 437.445
TIGRISAT 03 Jul 00:19:43 00:24:10 45° 287° (WNW) 00:28:39 435.000
UNISAT 6 03 Jul 00:26:40 00:30:56 36° 289° (WNW) 00:35:13 437.425
SO-50 03 Jul 00:29:29 00:34:07 69° 58° (ENE) 00:38:36 436.795
BUGSAT 1 03 Jul 00:32:36 00:34:56 15° 94° (E) 00:37:17 437.445
VELOX 1 03 Jul 00:39:35 00:43:57 65° 259° (W) 00:48:20 145.980
SPROUT 03 Jul 00:46:45 00:50:55 61° 75° (ENE) 00:55:07 437.525
UKube-1 03 Jul 00:54:33 00:58:51 71° 258° (WSW) 01:03:10 .
